Bigfork, MN

3:31 AM CDT on March 29, 2017 (GMT -0500)
Bigfork Municipal

Weather History for KFOZ - December, 2012

Change the Weather History Date:

Monday, December 31, 2012

  Actual Average (KGPZ) Record (KGPZ)
Temperature  
Mean Temperature -1 °F -  
Max Temperature 12 °F 15 °F 39 °F (1943)
Min Temperature -14 °F -2 °F -45 °F (1946)
Degree Days  
Heating Degree Days 66    
Moisture  
Dew Point -7 °F    
Average Humidity 75    
Maximum Humidity 85    
Minimum Humidity 61    
Precipitation  
Precipitation 0.00 in - - ()
Sea Level Pressure  
Sea Level Pressure 30.11 in    
Wind  
Wind Speed 4 mph (NW)    
Max Wind Speed 8 mph    
Max Gust Speed 18 mph    
Visibility 10 miles    
Events Snow    
Averages and records for this station are not official NWS values.
T = Trace of Precipitation, MM = Missing Value Source: NWS Daily Summary

Daily Weather History Graph

Daily Weather History Graph

Search for Another Location

Airport or City:

Trip Planner

Search our weather history database for the weather conditions in past years. The results will help you decide how hot, cold, wet, or windy it might be!

Date:

Astronomy

Dec. 31, 2012 Rise Set
Actual Time 8:03 AM CST 4:32 PM CST
Civil Twilight 7:27 AM CST 5:08 PM CST
Nautical Twilight 6:48 AM CST 5:47 PM CST
Astronomical Twilight 6:10 AM CST 6:25 PM CST
Moon 8:20 PM CST (12/31) 9:30 AM CST (12/31)
Length of Visible Light 9h 40m
Length of Day
8h 28m
Waning Gibbous, 90% of the Moon is Illuminated
Dec 31
Waning Gibbous
Jan 4
Last Quarter
Jan 11
New
Jan 18
First Quarter
Jan 26
Full

Hourly Weather History & Observations

Time (CST) Temp. Windchill Dew Point Humidity Pressure Visibility Wind Dir Wind Speed Gust Speed Precip Events Conditions
12:13 AM 12.2 °F 1.7 °F 6.8 °F 79% 29.92 in 10.0 mi WNW 6.9 mph - N/A Snow Light Snow
12:33 AM 10.4 °F -1.5 °F 5.0 °F 79% 29.92 in 10.0 mi NW 8.1 mph - N/A Snow Light Snow
12:53 AM 10.4 °F -0.4 °F 5.0 °F 79% 29.93 in 10.0 mi NW 6.9 mph 17.3 mph N/A   Overcast
1:13 AM 10.4 °F -0.4 °F 5.0 °F 79% 29.94 in 10.0 mi WNW 6.9 mph 16.1 mph N/A   Overcast
1:33 AM 10.4 °F -0.4 °F 3.2 °F 73% 29.95 in 10.0 mi WNW 6.9 mph - N/A Snow Light Snow
1:53 AM 10.4 °F 0.8 °F 3.2 °F 73% 29.96 in 7.0 mi NW 5.8 mph - N/A Snow Light Snow
2:13 AM 8.6 °F -3.7 °F 1.4 °F 73% 29.97 in 10.0 mi NNW 8.1 mph 18.4 mph N/A   Scattered Clouds
2:33 AM 5.0 °F -8.1 °F -0.4 °F 78% 29.99 in 10.0 mi NW 8.1 mph - N/A   Scattered Clouds
2:53 AM 3.2 °F -10.3 °F -2.2 °F 78% 30.00 in 10.0 mi NW 8.1 mph - N/A   Clear
3:13 AM 1.4 °F -8.3 °F -2.2 °F 85% 30.01 in 10.0 mi NNW 4.6 mph - N/A   Scattered Clouds
3:33 AM 1.4 °F -11.3 °F -4.0 °F 78% 30.03 in 10.0 mi NW 6.9 mph - N/A   Scattered Clouds
3:53 AM -0.4 °F -14.7 °F -5.8 °F 78% 30.04 in 10.0 mi NW 8.1 mph - N/A   Scattered Clouds
4:13 AM -0.4 °F -14.7 °F -5.8 °F 78% 30.06 in 10.0 mi NW 8.1 mph - N/A   Mostly Cloudy
4:33 AM -0.4 °F -8.3 °F -5.8 °F 78% 30.07 in 10.0 mi NW 3.5 mph - N/A   Mostly Cloudy
4:53 AM -0.4 °F -8.3 °F -5.8 °F 78% 30.07 in 10.0 mi NW 3.5 mph - N/A Snow Light Snow
5:13 AM -2.2 °F -12.5 °F -7.6 °F 78% 30.08 in 10.0 mi NW 4.6 mph - N/A   Scattered Clouds
5:33 AM -2.2 °F -14.2 °F -7.6 °F 78% 30.09 in 10.0 mi NW 5.8 mph - N/A   Scattered Clouds
6:13 AM -4.0 °F -12.4 °F -9.4 °F 78% 30.10 in 10.0 mi NW 3.5 mph - N/A   Scattered Clouds
6:33 AM -4.0 °F -14.6 °F -9.4 °F 78% 30.10 in 10.0 mi NW 4.6 mph - N/A   Clear
6:53 AM -4.0 °F -14.6 °F -9.4 °F 78% 30.11 in 10.0 mi NW 4.6 mph - N/A   Clear
7:33 AM -5.8 °F - -11.2 °F 77% 30.12 in 10.0 mi Calm Calm - N/A   Clear
8:13 AM -5.8 °F -14.5 °F -11.2 °F 77% 30.12 in 10.0 mi NW 3.5 mph - N/A   Clear
8:33 AM -5.8 °F -14.5 °F -11.2 °F 77% 30.13 in 10.0 mi NW 3.5 mph - N/A   Clear
8:53 AM -5.8 °F -14.5 °F -11.2 °F 77% 30.13 in 10.0 mi NW 3.5 mph - N/A   Clear
9:13 AM -5.8 °F -14.5 °F -9.4 °F 84% 30.13 in 10.0 mi NW 3.5 mph - N/A   Clear
9:33 AM -4.0 °F -16.3 °F -9.4 °F 78% 30.14 in 10.0 mi NW 5.8 mph - N/A   Clear
9:53 AM -4.0 °F -16.3 °F -9.4 °F 78% 30.14 in 10.0 mi NNW 5.8 mph - N/A   Clear
10:13 AM -2.2 °F -14.2 °F -9.4 °F 71% 30.14 in 10.0 mi NW 5.8 mph - N/A   Clear
10:33 AM -2.2 °F -12.5 °F -7.6 °F 78% 30.15 in 10.0 mi WNW 4.6 mph - N/A   Clear
10:53 AM -0.4 °F - -7.6 °F 72% 30.14 in 10.0 mi Calm Calm - N/A   Clear
11:13 AM -0.4 °F - -7.6 °F 72% 30.15 in 10.0 mi Calm Calm - N/A   Clear
11:33 AM 1.4 °F -6.2 °F -7.6 °F 66% 30.15 in 10.0 mi WNW 3.5 mph - N/A   Clear
11:53 AM 1.4 °F - -5.8 °F 72% 30.14 in 10.0 mi Calm Calm - N/A   Clear
12:13 PM 3.2 °F -4.2 °F -5.8 °F 66% 30.14 in 10.0 mi NW 3.5 mph - N/A   Clear
12:33 PM 3.2 °F -4.2 °F -5.8 °F 66% 30.14 in 10.0 mi NW 3.5 mph - N/A   Clear
12:53 PM 5.0 °F -4.1 °F -5.8 °F 61% 30.14 in 10.0 mi WNW 4.6 mph - N/A   Clear
1:13 PM 5.0 °F -2.1 °F -4.0 °F 66% 30.14 in 10.0 mi WNW 3.5 mph - N/A   Clear
1:33 PM 6.8 °F -2.0 °F -4.0 °F 61% 30.14 in 10.0 mi West 4.6 mph - N/A   Clear
1:53 PM 6.8 °F -0.1 °F -4.0 °F 61% 30.14 in 10.0 mi NW 3.5 mph - N/A   Clear
2:13 PM 6.8 °F - -4.0 °F 61% 30.14 in 10.0 mi Calm Calm - N/A   Clear
2:33 PM 6.8 °F -0.1 °F -2.2 °F 67% 30.14 in 10.0 mi WNW 3.5 mph - N/A   Clear
2:53 PM 6.8 °F -0.1 °F -2.2 °F 67% 30.15 in 10.0 mi WNW 3.5 mph - N/A   Clear
3:13 PM 6.8 °F -2.0 °F -2.2 °F 67% 30.15 in 10.0 mi NW 4.6 mph - N/A   Clear
3:33 PM 5.0 °F - -2.2 °F 72% 30.15 in 10.0 mi Calm Calm - N/A   Clear
3:53 PM 5.0 °F -2.1 °F -4.0 °F 66% 30.15 in 10.0 mi NW 3.5 mph - N/A   Clear
4:13 PM 3.2 °F - -2.2 °F 78% 30.16 in 10.0 mi Calm Calm - N/A   Clear
4:33 PM 3.2 °F - -4.0 °F 72% 30.16 in 10.0 mi Calm Calm - N/A   Clear
4:53 PM 1.4 °F - -4.0 °F 78% 30.17 in 10.0 mi Calm Calm - N/A   Clear
5:13 PM 1.4 °F - -5.8 °F 72% 30.17 in 10.0 mi Calm Calm - N/A   Clear
5:33 PM -0.4 °F - -5.8 °F 78% 30.18 in 10.0 mi Calm Calm - N/A   Clear
5:53 PM -0.4 °F - -5.8 °F 78% 30.17 in 10.0 mi Calm Calm - N/A   Clear
6:13 PM -0.4 °F - -7.6 °F 72% 30.17 in 10.0 mi Calm Calm - N/A   Clear
6:33 PM -2.2 °F - -7.6 °F 78% 30.17 in 10.0 mi Calm Calm - N/A   Clear
6:53 PM -5.8 °F - -11.2 °F 77% 30.18 in 10.0 mi Calm Calm - N/A   Clear
7:13 PM -5.8 °F - -11.2 °F 77% 30.18 in 10.0 mi Calm Calm - N/A   Clear
7:33 PM -7.6 °F - -11.2 °F 84% 30.18 in 10.0 mi Calm Calm - N/A   Clear
7:53 PM -9.4 °F - -13.0 °F 84% 30.18 in 10.0 mi Calm Calm - N/A   Clear
8:33 PM -11.2 °F - -16.6 °F 77% 30.18 in 10.0 mi Calm Calm - N/A   Clear
8:53 PM -11.2 °F - -16.6 °F 77% 30.18 in 10.0 mi Calm Calm - N/A   Clear
9:13 PM -13.0 °F - -18.4 °F 77% 30.17 in 10.0 mi Calm Calm - N/A   Clear
9:33 PM -13.0 °F - -18.4 °F 77% 30.18 in 10.0 mi Calm Calm - N/A   Clear
10:13 PM -14.8 °F - -18.4 °F 84% 30.17 in 10.0 mi Calm Calm - N/A   Clear
10:33 PM -13.0 °F - -18.4 °F 77% 30.17 in 10.0 mi Calm Calm - N/A   Clear
10:53 PM -14.8 °F - -18.4 °F 84% 30.17 in 10.0 mi Calm Calm - N/A   Clear
11:13 PM -14.8 °F - -20.2 °F 77% 30.17 in 10.0 mi Calm Calm - N/A   Clear
11:34 PM -14.8 °F - -18.4 °F 84% 30.17 in 10.0 mi Calm Calm - N/A   Clear
11:53 PM -14.8 °F - -20.2 °F 77% 30.17 in 10.0 mi Calm Calm - N/A   Clear